User: anonymous   Login
Location: Unspecified
(0.0000°N, 0.0000°E)
Time: 02:50:44
(UTC+00:00)
Language:

CHUBUSAT 3 - Orbit

View from above orbital plane
View from above orbital plane
View from above satellite
View from above satellite

Ground track
Ground track

The orbit data is extracted from the following two-line orbital elements,

1 41339U 16012C   18173.38431437  .00000307  00000-0  17218-4 0  9996
2 41339  31.0114 279.2155 0013410 131.6568 228.5223 15.00175263128603
Epoch (UTC): 22 June 2018 09:13:24
Eccentricity: 0.0013410
inclination: 31.0114°
perigee height: 557 km
apogee height: 575 km
right ascension of ascending node: 279.2155°
argument of perigee: 131.6568°
revolutions per day: 15.00175263
mean anomaly at epoch: 228.5223°
orbit number at epoch: 12860

The dashed part of the orbit path shows where the satellite is in the earth's shadow,  

DLR